1484395200.1,35262,6.44,71344.0,-10.21,-15.75,-15.49,0,*6D
1484395201.37,35263,6.44,71344.3,-10.21,-15.67,-15.43,0,*65
1484395202.61,35264,6.44,71344.3,-10.23,-15.43,-15.15,0,*65
1484395203.87,35265,6.38,71340.3,-10.23,-15.35,-15.01,0,*60
1484395205.1,35266,6.38,71340.3,-10.23,-15.29,-14.93,0,*64
1484395206.34,35267,6.38,71342.0,-10.23,-15.15,-14.75,0,*62
1484395207.6,35268,6.38,71340.5,-10.25,-14.97,-14.65,0,*61
1484395208.88,35269,6.38,71342.3,-10.25,-14.93,-14.55,0,*67
1484395210.15,35270,6.38,71342.5,-10.23,-14.79,-14.47,0,*6E
1484395211.44,35271,6.44,71340.5,-10.25,-14.79,-14.47,0,*69
1484395212.73,35272,6.44,71344.5,-10.25,-14.79,-14.47,0,*6A
1484395214.03,35273,6.38,71340.5,-10.25,-14.83,-14.51,0,*69
1484395215.29,35274,6.38,71340.5,-10.23,-14.75,-14.47,0,*66
1484395216.55,35275,6.38,71342.8,-10.25,-14.79,-14.37,0,*6A
1484395217.78,35276,6.38,71342.5,-10.23,-14.69,-14.43,0,*6D
1484395219.07,35277,6.38,71340.3,-10.25,-14.79,-14.47,0,*6F
1484395220.36,35278,6.44,71344.8,-10.25,-14.75,-14.47,0,*6C
1484395221.65,35279,6.38,71342.5,-10.25,-14.79,-14.47,0,*61
1484395222.89,35280,6.44,71344.0,-10.23,-14.89,-14.55,0,*6D
1484395224.12,35281,6.38,71344.0,-10.23,-14.89,-14.55,0,*6C
1484395225.38,35282,6.38,71340.3,-10.25,-14.93,-14.61,0,*65
1484395226.64,35283,6.44,71342.5,-10.23,-14.93,-14.55,0,*65
1484395227.9,35284,6.44,71346.8,-10.25,-14.97,-14.65,0,*63
1484395229.18,35285,6.44,71346.0,-10.25,-15.21,-14.79,0,*63
1484395230.45,35286,6.38,71344.5,-10.25,-15.11,-14.83,0,*66
1484395231.65,35287,6.44,71344.3,-10.23,-15.07,-14.69,0,*62
1484395232.88,35288,6.38,71342.8,-10.23,-15.07,-14.75,0,*60
1484395234.14,35289,6.44,71342.5,-10.25,-15.21,-14.65,0,*62
1484395235.4,35290,6.44,71344.3,-10.25,-15.11,-14.83,0,*61
1484395236.66,35291,6.38,71342.8,-10.25,-15.11,-14.79,0,*65
1484395237.95,35292,6.38,71342.3,-10.25,-15.21,-14.79,0,*65
1484395239.18,35293,6.44,71346.0,-10.25,-15.11,-14.65,0,*6A
1484395240.44,35294,6.38,71340.0,-10.25,-14.97,-14.61,0,*66
1484395241.71,35295,6.38,71340.0,-10.25,-14.83,-14.61,0,*62
1484395243.01,35296,6.38,71342.8,-10.25,-14.83,-14.47,0,*65
1484395244.27,35297,6.38,71340.3,-10.27,-14.75,-14.47,0,*6F
1484395245.53,35298,6.38,71342.3,-10.25,-14.75,-14.33,0,*61
1484395246.77,35299,6.38,71340.3,-10.25,-14.61,-14.33,0,*65
1484395248.01,35300,6.38,71340.0,-10.25,-14.61,-14.19,0,*6C
1484395249.24,35301,6.38,71340.8,-10.27,-14.51,-14.11,0,*64
1484395250.51,35302,6.38,71338.8,-10.25,-14.51,-14.11,0,*65
1484395251.78,35303,6.38,71340.0,-10.25,-14.37,-13.97,0,*6D
1484395253.05,35304,6.38,71342.3,-10.25,-14.37,-13.97,0,*6A
1484395254.31,35305,6.38,71342.0,-10.25,-14.37,-14.05,0,*67
1484395255.52,35306,6.38,71338.3,-10.23,-14.33,-13.93,0,*6E
1484395256.79,35307,6.38,71340.5,-10.23,-14.43,-14.01,0,*64
1484395258.05,35308,6.38,71340.0,-10.23,-14.43,-14.01,0,*6B
1484395259.33,35309,6.38,71342.3,-10.23,-14.47,-14.01,0,*6E
1484395260.57,35310,6.38,71336.8,-10.23,-14.47,-14.15,0,*63
1484395261.82,35311,6.38,71336.8,-10.23,-14.47,-14.19,0,*6E
1484395263.03,35312,6.38,71338.0,-10.23,-14.61,-14.29,0,*6A
1484395264.24,35313,6.38,71340.5,-10.23,-14.61,-14.33,0,*60
1484395265.5,35314,6.38,71340.8,-10.23,-14.79,-14.55,0,*6E
1484395266.73,35315,6.38,71338.3,-10.23,-14.89,-14.55,0,*60
1484395267.97,35316,6.38,71336.5,-10.23,-14.93,-14.61,0,*6F
1484395269.2,35317,6.38,71338.8,-10.23,-14.93,-14.61,0,*6E
1484395270.43,35318,6.38,71338.0,-10.23,-14.89,-14.55,0,*6D
1484395271.7,35319,6.44,71342.8,-10.23,-14.79,-14.47,0,*60
1484395272.91,35320,6.38,71338.5,-10.23,-14.61,-14.33,0,*60
1484395274.15,35321,6.44,71340.8,-10.23,-14.55,-14.29,0,*6D
1484395275.36,35322,6.38,71336.3,-10.23,-14.61,-14.19,0,*6A
1484395276.6,35323,6.38,71340.3,-10.25,-14.61,-14.23,0,*64
1484395277.84,35324,6.38,71338.0,-10.23,-14.55,-14.15,0,*67
1484395279.11,35325,6.38,71338.0,-10.23,-14.47,-14.05,0,*64
1484395280.38,35326,6.38,71338.3,-10.23,-14.47,-14.05,0,*67
1484395281.62,35327,6.38,71336.0,-10.23,-14.47,-14.15,0,*67
1484395282.87,35328,6.38,71338.5,-10.23,-14.47,-14.19,0,*64
1484395284.13,35329,6.44,71342.0,-10.21,-14.55,-14.19,0,*64
1484395285.4,35330,6.38,71338.8,-10.21,-14.55,-14.15,0,*60
1484395286.7,35331,6.38,71336.5,-10.21,-14.47,-14.05,0,*63
1484395287.97,35332,6.38,71338.0,-10.21,-14.47,-14.15,0,*61
1484395289.23,35333,6.38,71340.8,-10.21,-14.43,-13.93,0,*6D
1484395290.48,35334,6.38,71342.3,-10.19,-14.37,-13.97,0,*66
1484395291.72,35335,6.38,71340.0,-10.19,-14.37,-14.01,0,*6F
1484395292.97,35336,6.38,71340.0,-10.19,-14.37,-14.01,0,*6C
1484395294.24,35337,6.38,71340.3,-10.21,-14.43,-14.15,0,*60
1484395295.5,35338,6.38,71342.0,-10.19,-14.43,-14.01,0,*61
1484395296.79,35339,6.38,71342.3,-10.21,-14.43,-14.05,0,*6F
1484395298.03,35340,6.44,71344.3,-10.21,-14.33,-13.93,0,*6E
1484395299.26,35341,6.38,71340.8,-10.19,-14.29,-13.87,0,*6A
1484395300.51,35342,6.38,71340.0,-10.19,-14.29,-13.97,0,*68
1484395301.75,35343,6.38,71340.8,-10.19,-14.29,-13.97,0,*69
1484395303.0,35344,6.38,71346.0,-10.19,-14.37,-14.01,0,*69
1484395304.23,35345,6.38,71342.3,-10.19,-14.43,-14.11,0,*6A
1484395305.5,35346,6.38,71340.8,-10.19,-14.43,-14.01,0,*68
1484395306.76,35347,6.44,71344.0,-10.15,-14.43,-13.97,0,*6D
1484395308.0,35348,6.38,71342.0,-10.15,-14.37,-13.97,0,*61
1484395309.24,35349,6.38,71346.0,-10.13,-14.19,-13.93,0,*6E
1484395310.51,35350,6.38,71342.5,-10.13,-14.23,-13.83,0,*6E
1484395311.74,35351,6.38,71344.5,-10.13,-14.37,-13.93,0,*6B
1484395313.01,35352,6.38,71346.8,-10.13,-14.37,-13.97,0,*6C
1484395314.28,35353,6.38,71342.8,-10.13,-14.37,-14.05,0,*61
1484395315.51,35354,6.44,71348.0,-10.13,-14.37,-14.11,0,*63
1484395316.75,35355,6.38,71346.3,-10.13,-14.37,-14.19,0,*6A
1484395317.96,35356,6.44,71346.8,-10.15,-14.37,-14.11,0,*67
1484395319.19,35357,6.38,71344.3,-10.13,-14.37,-13.93,0,*6D
1484395320.46,35358,6.38,71344.8,-10.13,-14.33,-13.97,0,*62
1484395321.73,35359,6.38,71346.3,-10.13,-14.33,-13.97,0,*63
1484395322.96,35360,6.44,71348.3,-10.13,-14.33,-13.93,0,*6D
1484395324.17,35361,6.38,71346.8,-10.09,-14.33,-13.93,0,*67
1484395325.42,35362,6.44,71350.5,-10.09,-14.33,-14.01,0,*68
1484395326.66,35363,6.38,71348.5,-10.09,-14.43,-14.15,0,*6B
1484395327.92,35364,6.38,71346.5,-10.09,-14.47,-14.15,0,*68
1484395329.18,35365,6.38,71348.3,-10.07,-14.43,-14.15,0,*63
1484395330.46,35366,6.38,71346.0,-10.09,-14.43,-14.05,0,*6F
1484395331.73,35367,6.38,71346.8,-10.09,-14.43,-14.05,0,*6E
1484395332.96,35368,6.44,71348.0,-10.09,-14.43,-13.93,0,*69
1484395334.2,35369,6.38,71348.0,-10.07,-14.33,-13.93,0,*61
1484395335.43,35370,6.38,71344.8,-10.09,-14.33,-13.79,0,*63
1484395336.68,35371,6.38,71344.5,-10.09,-14.19,-13.87,0,*6B
1484395337.92,35372,6.38,71346.8,-10.09,-14.19,-13.79,0,*69
1484395339.18,35373,6.38,71346.0,-10.07,-14.29,-13.87,0,*64
1484395340.42,35374,6.38,71344.0,-10.09,-14.19,-13.79,0,*6F
1484395341.66,35375,6.38,71344.0,-10.09,-14.33,-13.87,0,*67
1484395342.89,35376,6.38,71344.0,-10.07,-14.29,-13.93,0,*64
1484395344.16,35377,6.38,71344.8,-10.07,-14.15,-13.87,0,*6F
1484395345.42,35378,6.38,71346.0,-10.07,-14.33,-13.79,0,*65
1484395346.68,35379,6.38,71350.0,-10.07,-14.29,-13.87,0,*6E
1484395347.91,35380,6.38,71344.3,-10.07,-14.29,-13.93,0,*6D
1484395349.15,35381,6.38,71346.5,-10.09,-14.29,-13.87,0,*67
1484395350.42,35382,6.38,71344.3,-10.07,-14.33,-14.01,0,*68
1484395351.68,35383,6.38,71346.5,-10.07,-14.33,-14.01,0,*69
1484395352.92,35384,6.38,71342.5,-10.05,-14.33,-14.01,0,*6C
1484395354.16,35385,6.38,71344.8,-10.05,-14.33,-14.01,0,*6D
1484395355.43,35386,6.38,71344.3,-10.03,-14.23,-13.87,0,*60
1484395356.66,35387,6.38,71346.8,-10.05,-14.29,-13.79,0,*6C
1484395357.89,35388,6.38,71344.3,-10.05,-14.19,-13.79,0,*60
1484395359.14,35389,6.38,71344.5,-10.03,-14.15,-13.73,0,*61
1484395360.36,35390,6.38,71344.3,-10.05,-14.11,-13.55,0,*6F
1484395361.6,35391,6.38,71344.3,-10.03,-14.15,-13.69,0,*63
1484395362.81,35392,6.38,71346.3,-10.05,-14.19,-13.93,0,*6F
1484395364.08,35393,6.38,71342.3,-10.03,-14.23,-13.87,0,*64
1484395365.34,35394,6.38,71344.0,-10.03,-14.23,-13.87,0,*63
1484395366.58,35395,6.38,71350.3,-10.05,-14.29,-13.87,0,*6E
1484395367.84,35396,6.38,71348.3,-10.03,-14.29,-13.87,0,*6B
1484395369.08,35397,6.38,71348.0,-10.03,-14.23,-13.73,0,*6B
1484395370.35,35398,6.38,71348.3,-10.03,-14.15,-13.83,0,*6E
1484395371.56,35399,6.38,71344.3,-10.01,-14.11,-13.69,0,*6D
1484395372.79,35400,6.38,71348.0,-9.99,-14.11,-13.69,0,*53
1484395374.04,35401,6.38,71348.0,-10.01,-14.05,-13.65,0,*62
1484395375.27,35402,6.38,71346.5,-10.01,-14.11,-13.79,0,*69
1484395376.49,35403,6.38,71348.5,-10.01,-14.11,-13.69,0,*69
1484395377.7,35404,6.38,71346.8,-10.01,-14.11,-13.69,0,*6E
1484395378.93,35405,6.38,71346.8,-9.99,-14.11,-13.69,0,*56
1484395380.18,35406,6.38,71346.8,-10.01,-14.05,-13.69,0,*69
1484395381.44,35407,6.38,71346.8,-9.99,-14.05,-13.65,0,*5D
1484395382.7,35408,6.38,71346.0,-9.99,-14.05,-13.51,0,*55
1484395383.96,35409,6.38,71346.0,-9.99,-14.05,-13.51,0,*54
1484395385.22,35410,6.38,71346.3,-9.95,-13.93,-13.61,0,*5B
1484395386.48,35411,6.38,71344.0,-9.97,-13.87,-13.61,0,*5D
1484395387.68,35412,6.38,71344.0,-9.97,-13.93,-13.47,0,*5F
1484395388.93,35413,6.38,71344.5,-9.95,-14.01,-13.47,0,*50
1484395390.22,35414,6.38,71346.5,-9.95,-14.01,-13.61,0,*53
1484395391.48,35415,6.38,71346.3,-9.95,-14.15,-13.79,0,*5E
1484395392.73,35416,6.38,71346.0,-9.95,-14.19,-13.87,0,*50
1484395393.99,35417,6.38,71346.8,-9.95,-14.19,-13.79,0,*50
1484395395.22,35418,6.38,71350.3,-9.95,-14.15,-13.73,0,*59
1484395396.48,35419,6.38,71344.3,-9.95,-14.05,-13.73,0,*59
1484395397.72,35420,6.38,71346.0,-9.97,-14.05,-13.65,0,*56
1484395399.01,35421,6.38,71344.0,-9.95,-14.05,-13.61,0,*51
1484395400.29,35422,6.38,71344.3,-9.95,-14.01,-13.61,0,*56
1484395401.58,35423,6.38,71344.5,-9.95,-14.01,-13.61,0,*57
1484395402.84,35424,6.38,71344.3,-9.95,-14.05,-13.65,0,*50
1484395404.13,35425,6.38,71344.5,-9.91,-14.01,-13.61,0,*55
1484395405.39,35426,6.38,71346.5,-9.91,-14.01,-13.69,0,*5E
1484395406.68,35427,6.38,71350.0,-9.91,-14.01,-13.61,0,*57
1484395407.94,35428,6.38,71346.8,-9.91,-14.01,-13.55,0,*5F
1484395409.2,35429,6.38,71344.0,-9.91,-13.87,-13.43,0,*50
1484395410.46,35430,6.38,71346.5,-9.91,-13.97,-13.55,0,*5E
1484395411.71,35431,6.38,71346.5,-9.91,-13.87,-13.43,0,*59
1484395412.97,35432,6.38,71348.0,-9.91,-13.87,-13.43,0,*5A
1484395414.2,35433,6.38,71348.3,-9.89,-13.83,-13.43,0,*56
1484395415.43,35434,6.38,71348.5,-9.89,-13.87,-13.43,0,*55
1484395416.67,35435,6.38,71344.0,-9.89,-14.01,-13.55,0,*5A
1484395417.93,35436,6.38,71346.0,-9.89,-13.97,-13.61,0,*56
1484395419.19,35437,6.38,71346.5,-9.87,-14.05,-13.65,0,*51
1484395420.44,35438,6.38,71344.8,-9.87,-14.05,-13.69,0,*52
1484395421.7,35439,6.38,71344.0,-9.87,-14.05,-13.69,0,*53
1484395422.93,35440,6.38,71344.3,-9.85,-14.11,-13.79,0,*5B
1484395424.15,35441,6.38,71346.0,-9.87,-14.11,-13.69,0,*59
1484395425.41,35442,6.38,71346.8,-9.87,-14.05,-13.69,0,*5F
1484395426.64,35443,6.38,71348.8,-9.87,-14.11,-13.65,0,*57
1484395427.88,35444,6.38,71346.5,-9.85,-14.05,-13.65,0,*57
1484395429.11,35445,6.38,71350.8,-9.85,-13.97,-13.65,0,*5A
1484395430.35,35446,6.38,71348.0,-9.85,-14.05,-13.65,0,*55
1484395431.55,35447,6.38,71346.5,-9.85,-14.11,-13.69,0,*5D
1484395432.81,35448,6.38,71346.8,-9.85,-14.05,-13.79,0,*56
1484395434.01,35449,6.38,71348.8,-9.85,-14.11,-13.69,0,*53
1484395435.24,35450,6.38,71350.5,-9.85,-14.11,-13.79,0,*5A
1484395436.47,35451,6.38,71350.8,-9.85,-14.11,-13.79,0,*5B
1484395437.7,35452,6.38,71348.8,-9.85,-14.11,-13.79,0,*58
1484395438.92,35453,6.38,71348.5,-9.85,-14.19,-13.79,0,*51
1484395440.16,35454,6.38,71350.5,-9.83,-14.15,-13.73,0,*56
1484395441.39,35455,6.38,71346.8,-9.83,-14.15,-13.73,0,*57
1484395442.64,35456,6.38,71348.0,-9.83,-14.05,-13.65,0,*52
1484395443.9,35457,6.38,71344.5,-9.83,-14.05,-13.65,0,*53
1484395445.15,35458,6.38,71348.8,-9.83,-14.05,-13.65,0,*5C
1484395446.41,35459,6.38,71348.8,-9.83,-14.05,-13.73,0,*5A
1484395447.68,35460,6.38,71350.3,-9.83,-14.05,-13.79,0,*5A
1484395448.92,35461,6.38,71350.0,-9.81,-14.15,-13.87,0,*59
1484395450.14,35462,6.38,71350.3,-9.83,-14.19,-13.93,0,*51
1484395451.4,35463,6.38,71348.3,-9.83,-14.15,-14.01,0,*50
1484395452.66,35464,6.38,71348.5,-9.83,-14.15,-13.79,0,*5F
1484395453.87,35465,6.38,71350.3,-9.81,-14.15,-13.73,0,*56
1484395455.1,35466,6.38,71350.0,-9.81,-14.05,-13.65,0,*53
1484395456.33,35467,6.38,71346.3,-9.81,-14.05,-13.73,0,*55
1484395457.58,35468,6.38,71350.5,-9.83,-14.05,-13.65,0,*5F
1484395458.79,35469,6.38,71348.5,-9.81,-14.15,-13.73,0,*5A
1484395460.02,35470,6.38,71348.3,-9.81,-14.15,-13.79,0,*58
1484395461.23,35471,6.38,71348.5,-9.81,-14.15,-13.73,0,*53
1484395462.46,35472,6.38,71348.3,-9.81,-14.19,-13.87,0,*57
1484395463.69,35473,6.38,71350.3,-9.81,-14.19,-13.87,0,*56
1484395464.92,35474,6.38,71350.3,-9.81,-14.33,-14.01,0,*50
1484395466.15,35475,6.38,71348.0,-9.81,-14.37,-14.05,0,*51
1484395467.38,35476,6.38,71348.3,-9.81,-14.33,-14.05,0,*56
1484395468.61,35477,6.38,71346.0,-9.81,-14.37,-14.05,0,*53
1484395469.84,35478,6.38,71348.5,-9.81,-14.37,-14.05,0,*5C
1484395471.04,35479,6.38,71348.8,-9.81,-14.33,-13.93,0,*51
1484395472.27,35480,6.38,71352.5,-9.81,-14.33,-14.01,0,*5B
1484395473.5,35481,6.38,71348.5,-9.81,-14.33,-14.01,0,*5A
1484395474.73,35482,6.38,71352.5,-9.81,-14.33,-14.05,0,*5D
1484395475.96,35483,6.38,71350.5,-9.81,-14.33,-14.01,0,*58
1484395477.15,35484,6.38,71352.3,-9.81,-14.33,-13.93,0,*53
1484395478.38,35485,6.38,71348.3,-9.81,-14.33,-14.01,0,*5E
1484395479.62,35486,6.38,71354.3,-9.81,-14.47,-14.15,0,*5B
1484395480.83,35487,6.38,71350.0,-9.81,-14.37,-14.19,0,*51
1484395482.09,35488,6.38,71350.8,-9.83,-14.47,-14.19,0,*5B
1484395483.35,35489,6.38,71350.5,-9.81,-14.47,-14.05,0,*55
1484395484.61,35490,6.38,71350.8,-9.81,-14.47,-14.05,0,*5D
1484395485.84,35491,6.38,71352.0,-9.81,-14.29,-14.01,0,*50
1484395487.07,35492,6.38,71354.0,-9.81,-14.29,-14.01,0,*53
1484395488.29,35493,6.38,71348.5,-9.81,-14.29,-13.79,0,*5A
1484395489.52,35494,6.38,71354.3,-9.81,-14.19,-13.79,0,*5E
1484395490.72,35495,6.38,71352.5,-9.79,-14.11,-13.69,0,*51
1484395491.95,35496,6.38,71350.8,-9.81,-14.15,-13.79,0,*50
1484395493.15,35497,6.38,71348.8,-9.79,-14.11,-13.69,0,*53
1484395494.36,35498,6.38,71348.8,-9.79,-14.11,-13.69,0,*5C
1484395495.56,35499,6.38,71348.3,-9.79,-14.11,-13.69,0,*5D
1484395496.79,35500,6.38,71350.3,-9.79,-14.01,-13.69,0,*5D
1484395498.02,35501,6.38,71350.5,-9.79,-14.01,-13.69,0,*5C
1484395499.31,35502,6.38,71352.8,-9.77,-14.01,-13.61,0,*59
1484395500.57,35503,6.38,71348.8,-9.77,-14.01,-13.69,0,*50
1484395501.78,35504,6.38,71350.8,-9.79,-14.11,-13.69,0,*58
1484395502.98,35505,6.38,71350.3,-9.79,-14.11,-13.73,0,*52
1484395504.19,35506,6.38,71350.3,-9.79,-14.11,-13.69,0,*5A
1484395505.48,35507,6.38,71354.0,-9.77,-14.01,-13.61,0,*5C
1484395506.74,35508,6.38,71354.0,-9.77,-14.01,-13.69,0,*5B
1484395507.97,35509,6.38,71350.5,-9.79,-14.01,-13.69,0,*54
1484395509.21,35510,6.38,71352.0,-9.77,-14.11,-13.73,0,*58
1484395510.41,35511,6.38,71348.5,-9.79,-14.11,-13.73,0,*57
1484395511.65,35512,6.38,71350.0,-9.77,-14.11,-13.73,0,*5A
1484395512.89,35513,6.38,71350.3,-9.77,-14.11,-13.73,0,*5B
1484395514.1,35514,6.38,71348.8,-9.79,-14.15,-13.73,0,*56
1484395515.34,35515,6.38,71350.3,-9.77,-14.15,-13.73,0,*59
1484395516.6,35516,6.38,71352.0,-9.77,-14.15,-13.83,0,*55
1484395517.84,35517,6.38,71352.8,-9.77,-14.15,-13.73,0,*5B
1484395519.08,35518,6.38,71348.0,-9.77,-14.15,-13.73,0,*54
1484395520.32,35519,6.38,71348.5,-9.77,-14.11,-13.73,0,*51
1484395521.55,35520,6.38,71344.0,-9.77,-14.11,-13.73,0,*5B
1484395522.78,35521,6.38,71350.0,-9.75,-14.05,-13.69,0,*56
1484395524.02,35522,6.38,71348.0,-9.75,-13.97,-13.55,0,*56
1484395525.22,35523,6.38,71350.5,-9.75,-13.93,-13.43,0,*54
1484395526.48,35524,6.38,71350.0,-9.73,-13.97,-13.51,0,*52
1484395527.74,35525,6.38,71348.5,-9.73,-13.97,-13.65,0,*54
1484395528.97,35526,6.38,71348.8,-9.75,-13.97,-13.65,0,*51
1484395530.2,35527,6.38,71350.8,-9.75,-13.97,-13.65,0,*50
1484395531.43,35528,6.38,71354.8,-9.73,-14.11,-13.69,0,*5C
1484395532.68,35529,6.38,71348.8,-9.73,-14.11,-13.79,0,*5C
1484395533.91,35530,6.38,71352.8,-9.73,-14.23,-13.93,0,*51
1484395535.13,35531,6.38,71350.3,-9.73,-14.37,-13.93,0,*55
1484395536.39,35532,6.38,71348.5,-9.73,-14.37,-14.05,0,*5E
1484395537.59,35533,6.38,71348.5,-9.75,-14.37,-14.11,0,*5C
1484395538.82,35534,6.38,71350.3,-9.75,-14.51,-14.11,0,*5B
1484395540.05,35535,6.38,71350.0,-9.75,-14.51,-14.19,0,*52
1484395541.31,35536,6.38,71350.3,-9.73,-14.55,-14.29,0,*50
1484395542.56,35537,6.38,71350.8,-9.73,-14.79,-14.29,0,*5F
1484395543.8,35538,6.38,71348.8,-9.75,-14.79,-14.43,0,*5A
1484395545.0,35539,6.38,71348.8,-9.75,-14.69,-14.29,0,*56
1484395546.23,35540,6.38,71348.8,-9.75,-14.43,-14.11,0,*5B
1484395547.46,35541,6.38,71350.0,-9.75,-14.37,-14.05,0,*5C
1484395548.69,35542,6.38,71350.5,-9.75,-14.29,-13.97,0,*5C
1484395549.92,35543,6.38,71352.3,-9.75,-14.29,-13.83,0,*58
1484395551.15,35544,6.38,71350.3,-9.75,-14.19,-13.83,0,*5C
1484395552.38,35545,6.38,71350.0,-9.75,-14.23,-13.83,0,*54
1484395553.6,35546,6.38,71354.8,-9.73,-14.29,-13.93,0,*5A
1484395554.83,35547,6.38,71350.3,-9.75,-14.29,-13.97,0,*59
1484395556.06,35548,6.38,71352.0,-9.75,-14.29,-13.83,0,*53
1484395557.31,35549,6.38,71354.5,-9.73,-14.23,-13.79,0,*5B
1484395558.54,35550,6.38,71350.5,-9.75,-14.05,-13.65,0,*5C
1484395559.78,35551,6.38,71348.8,-9.73,-14.11,-13.55,0,*5D
1484395561.01,35552,6.38,71352.8,-9.73,-14.11,-13.55,0,*5E
1484395562.27,35553,6.38,71350.3,-9.73,-14.05,-13.55,0,*5A
1484395563.5,35554,6.38,71352.3,-9.73,-14.11,-13.55,0,*58
1484395564.73,35555,6.38,71350.0,-9.73,-14.19,-13.69,0,*5E
1484395565.98,35556,6.38,71354.0,-9.73,-14.23,-13.79,0,*55
1484395567.24,35557,6.38,71350.8,-9.73,-14.23,-13.83,0,*51
1484395568.49,35558,6.38,71354.0,-9.73,-14.23,-13.83,0,*5E
1484395569.74,35559,6.38,71352.0,-9.73,-14.11,-13.83,0,*5E
1484395571.0,35560,6.38,71354.5,-9.73,-14.05,-13.69,0,*55
1484395572.25,35561,6.38,71348.5,-9.73,-14.05,-13.69,0,*54
1484395573.51,35562,6.38,71348.0,-9.73,-14.05,-13.69,0,*57
1484395574.76,35563,6.38,71350.5,-9.73,-14.05,-13.65,0,*5A
1484395576.02,35564,6.38,71348.0,-9.73,-14.05,-13.69,0,*51
1484395577.27,35565,6.38,71352.3,-9.73,-14.05,-13.65,0,*5C
1484395578.5,35566,6.38,71350.0,-9.71,-13.93,-13.61,0,*51
1484395579.7,35567,6.38,71350.5,-9.71,-13.93,-13.51,0,*53
1484395580.96,35568,6.38,71348.0,-9.71,-14.01,-13.61,0,*53
1484395582.22,35569,6.38,71348.5,-9.71,-14.01,-13.61,0,*52
1484395583.47,35570,6.38,71350.8,-9.67,-14.01,-13.61,0,*5D
1484395584.67,35571,6.38,71348.8,-9.67,-13.93,-13.51,0,*53
1484395585.92,35572,6.38,71350.5,-9.67,-13.87,-13.37,0,*55
1484395587.17,35573,6.38,71348.3,-9.67,-13.87,-13.37,0,*54
1484395588.4,35574,6.38,71350.8,-9.67,-13.87,-13.51,0,*53
1484395589.59,35575,6.38,71350.3,-9.67,-13.93,-13.51,0,*57
1484395590.85,35576,6.38,71352.3,-9.65,-13.87,-13.55,0,*57
1484395592.1,35577,6.38,71354.3,-9.65,-13.87,-13.55,0,*56
1484395593.38,35578,6.38,71352.5,-9.65,-13.97,-13.61,0,*5F
1484395594.67,35579,6.38,71348.5,-9.65,-14.01,-13.61,0,*56
1484395595.9,35580,6.38,71350.8,-9.63,-13.97,-13.69,0,*56
1484395597.13,35581,6.38,71348.3,-9.67,-14.01,-13.73,0,*50
1484395598.41,35582,6.38,71354.3,-9.65,-13.97,-13.61,0,*5A
1484395599.67,35583,6.38,71348.3,-9.65,-13.97,-13.69,0,*53
1484395600.89,35584,6.38,71348.3,-9.63,-13.97,-13.69,0,*52
1484395602.18,35585,6.38,71350.3,-9.65,-13.97,-13.61,0,*5D
1484395603.41,35586,6.38,71352.3,-9.63,-14.01,-13.69,0,*58
1484395604.61,35587,6.38,71352.0,-9.63,-14.11,-13.73,0,*53
1484395605.82,35588,6.38,71352.0,-9.63,-14.15,-13.73,0,*58
1484395607.04,35589,6.38,71352.0,-9.63,-14.11,-13.83,0,*52
1484395608.3,35590,6.38,71352.5,-9.65,-14.01,-13.73,0,*52
1484395609.5,35591,6.38,71352.5,-9.63,-14.11,-13.69,0,*5F
1484395610.73,35592,6.38,71352.5,-9.63,-14.01,-13.69,0,*5D
1484395611.96,35593,6.38,71350.8,-9.63,-14.01,-13.73,0,*57
1484395613.22,35594,6.38,71354.8,-9.61,-14.11,-13.83,0,*5C
1484395614.45,35595,6.38,71352.5,-9.61,-14.23,-13.93,0,*5D
1484395615.68,35596,6.38,71354.0,-9.63,-14.33,-13.97,0,*59
1484395616.9,35597,6.38,71352.0,-9.63,-14.55,-14.11,0,*51
1484395618.13,35598,6.38,71354.5,-9.63,-14.55,-14.15,0,*5A
1484395619.36,35599,6.38,71350.8,-9.63,-14.55,-14.15,0,*5B
1484395620.62,35600,6.38,71354.3,-9.65,-14.47,-14.15,0,*5D
1484395621.86,35601,6.38,71352.8,-9.63,-14.55,-14.15,0,*59
1484395623.05,35602,6.38,71352.8,-9.63,-14.69,-14.33,0,*51
1484395624.25,35603,6.38,71352.3,-9.63,-14.61,-14.29,0,*53
1484395625.45,35604,6.38,71354.5,-9.63,-14.61,-14.15,0,*5B
1484395626.73,35605,6.38,71352.0,-9.65,-14.43,-14.01,0,*59
1484395627.96,35606,6.38,71352.3,-9.65,-14.19,-13.73,0,*57
1484395629.19,35607,6.38,71352.5,-9.65,-14.11,-13.73,0,*5E
1484395630.39,35608,6.38,71354.0,-9.63,-14.11,-13.69,0,*5C
1484395631.62,35609,6.38,71352.0,-9.63,-13.97,-13.69,0,*54
1484395632.85,35610,6.38,71354.5,-9.63,-14.01,-13.69,0,*54
1484395634.08,35611,6.38,71354.3,-9.63,-14.15,-13.83,0,*54
1484395635.31,35612,6.38,71354.3,-9.63,-14.29,-13.97,0,*5D
1484395636.54,35613,6.38,71354.3,-9.63,-14.29,-13.97,0,*5C
1484395637.77,35614,6.38,71350.3,-9.63,-14.29,-13.97,0,*5B
1484395639.0,35615,6.38,71354.8,-9.63,-14.19,-13.97,0,*59
1484395640.27,35616,6.38,71352.8,-9.61,-14.15,-13.83,0,*51
1484395641.49,35617,6.38,71352.0,-9.63,-14.19,-13.87,0,*5A
1484395642.72,35618,6.38,71352.0,-9.63,-14.15,-13.87,0,*59
1484395643.95,35619,6.38,71352.8,-9.63,-14.15,-13.83,0,*5C
1484395645.21,35620,6.38,71348.3,-9.61,-14.05,-13.69,0,*51
1484395646.47,35621,6.38,71350.3,-9.61,-13.97,-13.65,0,*50
1484395647.7,35622,6.38,71348.3,-9.61,-13.93,-13.65,0,*57
1484395648.9,35623,6.38,71354.0,-9.59,-13.93,-13.55,0,*5E
1484395650.16,35624,6.38,71348.3,-9.61,-13.97,-13.55,0,*56
1484395651.39,35625,6.38,71348.0,-9.61,-13.93,-13.55,0,*53
1484395652.59,35626,6.38,71350.8,-9.59,-13.93,-13.55,0,*5B
1484395653.82,35627,6.38,71348.0,-9.61,-13.93,-13.55,0,*51
1484395655.02,35628,6.38,71348.8,-9.59,-13.93,-13.55,0,*55
1484395656.25,35629,6.38,71348.0,-9.59,-13.97,-13.69,0,*5F
1484395657.48,35630,6.38,71350.3,-9.59,-13.97,-13.65,0,*5B
1484395658.74,35631,6.38,71350.3,-9.61,-14.05,-13.65,0,*5D
1484395659.99,35632,6.38,71346.5,-9.61,-14.11,-13.79,0,*56
1484395661.22,35633,6.38,71350.8,-9.59,-14.11,-13.79,0,*5C
1484395662.5,35634,6.38,71348.3,-9.61,-14.05,-13.79,0,*55
1484395663.72,35635,6.38,71346.0,-9.59,-14.11,-13.79,0,*5A
1484395664.95,35636,6.38,71346.3,-9.59,-14.05,-13.69,0,*5D
1484395666.18,35637,6.38,71346.0,-9.59,-14.05,-13.65,0,*50
1484395667.41,35638,6.38,71350.8,-9.59,-14.05,-13.65,0,*5F
1484395668.65,35639,6.38,71344.8,-9.59,-13.97,-13.55,0,*51
1484395669.88,35640,6.38,71346.8,-9.59,-13.97,-13.55,0,*5F
1484395671.14,35641,6.38,71344.5,-9.57,-13.93,-13.61,0,*53
1484395672.36,35642,6.38,71346.5,-9.55,-13.93,-13.61,0,*52
1484395673.57,35643,6.38,71348.3,-9.55,-14.19,-13.73,0,*55
1484395674.82,35644,6.38,71346.8,-9.57,-14.33,-13.87,0,*53
1484395676.05,35645,6.38,71346.3,-9.55,-14.33,-14.01,0,*59
1484395677.34,35646,6.38,71346.5,-9.57,-14.47,-14.01,0,*5B
1484395678.57,35647,6.38,71346.0,-9.57,-14.37,-13.93,0,*51
1484395679.82,35648,6.38,71350.5,-9.57,-14.37,-14.01,0,*52
1484395681.05,35649,6.38,71348.0,-9.57,-14.37,-13.93,0,*5F
1484395682.24,35650,6.38,71348.5,-9.55,-14.33,-13.93,0,*51
1484395683.47,35651,6.38,71350.8,-9.57,-14.33,-13.93,0,*52
1484395684.7,35652,6.38,71350.0,-9.55,-14.33,-14.01,0,*5F
1484395685.92,35653,6.38,71348.0,-9.57,-14.33,-13.93,0,*50
1484395687.15,35654,6.38,71348.8,-9.57,-14.23,-13.93,0,*56
1484395688.38,35655,6.38,71346.8,-9.55,-14.33,-14.01,0,*58
1484395689.63,35656,6.38,71352.3,-9.57,-14.33,-14.01,0,*59
1484395690.87,35657,6.38,71348.0,-9.55,-14.47,-14.11,0,*58
1484395692.09,35658,6.38,71348.0,-9.57,-14.61,-14.19,0,*59
1484395693.31,35659,6.38,71344.5,-9.57,-14.61,-14.11,0,*50
1484395694.56,35660,6.38,71350.5,-9.57,-14.51,-14.11,0,*59
1484395695.85,35661,6.38,71348.8,-9.57,-14.51,-14.05,0,*5D
1484395697.13,35662,6.38,71350.3,-9.57,-14.47,-14.05,0,*59
1484395698.36,35663,6.38,71352.0,-9.57,-14.23,-13.93,0,*52
1484395699.62,35664,6.38,71348.0,-9.57,-14.33,-14.05,0,*5C
1484395700.87,35665,6.38,71350.8,-9.57,-14.37,-14.01,0,*5D
1484395702.13,35666,6.38,71350.0,-9.59,-14.51,-14.05,0,*54